Flag for Antigua and Barbuda Weather past 2 weeks in Saint John's, Antigua and Barbuda

Now
84 °F

Sprinkles. Partly sunny.


Feels Like: 92 °F
Forecast: 80 / 84 °F
Wind: 14 mph from East

Location: Vc Bird International Antigua Airport

Current Time: Jun 30, 2015 at 1:04:17 PM

Latest Report: Jun 30, 2015 at 12:00 PM


Visibility: N/A

Pressure: 30.09 "Hg

Humidity: 74%

Dew point: 75 °F

Location of Saint John'sLocation

Historic Weather in Saint John's — Graph

°F

Saint John's temperature yesterday

Maximum temperature yesterday: 86 °F (at 12:00 PM)
Minimum temperature yesterday: 79 °F (at 8:00 AM)
Average temperature yesterday: 82 °F

Past Weeks' High & Low Weather Summary

 TemperatureHumidityPressure
High88 °F (Jun 15, 12:00 PM)94% (Jun 25, 9:00 PM)30.15 "Hg (Jun 25, 9:00 PM)
Low75 °F (Jun 22, 8:00 AM)55% (Jun 25, 9:00 AM)30.01 "Hg (Jun 15, 4:00 PM)
Average82 °F74%30.08 "Hg
* Reported Jun 15 12:00 Noon — Jun 30 12:00 Noon, Saint John's, Weather by CustomWeather, © 2015

Note: Actual official high and low records may vary slightly from our data, if they occured in-between our weather recording intervals... More about our weather records

Advertising

Saint John's weather history for previous 24 hours

 ConditionsComfort  
Time TempWeatherWind HumidityBarometerVisibility
12:00 PM
Tue, Jun 30
84 °FSprinkles. Partly sunny.14 mph74%30.09 "HgN/A
11:00 AM82 °FSprinkles. Broken clouds.13 mph74%30.09 "HgN/A
10:00 AM82 °FPartly sunny.14 mph74%30.09 "HgN/A
9:00 AM82 °FScattered clouds.16 mph74%30.09 "HgN/A
8:00 AM82 °FPartly sunny.15 mph70%30.09 "HgN/A
7:00 AM81 °FScattered clouds.15 mph74%30.07 "HgN/A
6:00 AM81 °FPassing clouds.13 mph74%30.04 "HgN/A
5:00 AM81 °FPassing clouds.14 mph74%30.04 "HgN/A
4:00 AM79 °FPassing clouds.13 mph79%30.04 "HgN/A
3:00 AM81 °FPartly cloudy.15 mph79%30.04 "HgN/A
2:00 AM81 °FScattered showers. Partly cloudy.17 mph74%30.04 "HgN/A
1:00 AM81 °FScattered showers. Passing clouds.16 mph79%30.07 "HgN/A
12:00 AM81 °FPassing clouds.16 mph74%30.07 "HgN/A
11:00 PM
Mon, Jun 29
81 °FPassing clouds.15 mph74%30.09 "HgN/A
10:00 PM79 °FPassing clouds.18 mph79%30.09 "HgN/A
9:00 PM81 °FPassing clouds.16 mph74%30.09 "HgN/A
8:00 PM81 °FPassing clouds.14 mph74%30.07 "HgN/A
7:00 PM81 °FPassing clouds.15 mph74%30.07 "HgN/A
6:00 PM82 °FPassing clouds.14 mph66%30.04 "HgN/A
5:00 PM82 °FPassing clouds.16 mph70%30.04 "HgN/A
4:00 PM84 °FScattered clouds.15 mph66%30.04 "HgN/A
3:00 PM86 °FPassing clouds.16 mph59%30.07 "HgN/A
2:00 PM86 °FScattered clouds.15 mph62%30.07 "HgN/A
1:00 PM86 °FScattered clouds.14 mph62%30.09 "HgN/A
Weather by CustomWeather, © 2015

See weather overviewHow to use our weather pages